Regional Weather Roundup
Issued by NWS

Home | Current Version | Previous Version | Text Only | Print | Product List | Glossary On
Versions: 1 2 3 4 5 6 7 8 9 10 11 12 13 14 15 16 17 18 19 20 21 22 23 24 25 26 27 28 29 30 31 32 33 34 35 36 37 38 39 40 41 42 43 44 45 46 47 48 49 50
000
ASUS43 KDTX 271110
RWRMI
MICHIGAN HOURLY REGIONAL WEATHER ROUNDUP
NATIONAL WEATHER SERVICE DETROIT/PONTIAC MI
700 AM EDT WED AUG 27 2014

NOTE: "FAIR" INDICATES FEW OR NO CLOUDS BELOW 12,000 FEET WITH NO
SIGNIFICANT WEATHER AND/OR OBSTRUCTION TO VISIBILITY.

MIZ047>049-052>055-059>063-066>070-074>076-081>083-271200-
SOUTHEAST LOWER MICHIGAN

CITY           SKY/WX    TMP DP  RH WIND       PRES   REMARKS
ADRIAN         CLEAR     64  62  93 N5        30.11R
ALMA           CLOUDY    59  57  95 N3        30.14R
ANN ARBOR      CLOUDY    68  64  87 CALM      30.10R
BAD AXE        CLOUDY    55  55 100 CALM      30.13S
CARO           PTCLDY    57  56  97 CALM      30.12S
DETROIT CITY   CLOUDY    68  60  75 NE7       30.12R
DETROIT        CLOUDY    66  63  90 NE12      30.11R
FLINT          MOCLDY    66  57  72 NE9       30.12R
GROSSE ILE     MOCLDY    68  64  88 NE7       30.09R
HILLSDALE      CLEAR     61  61 100 CALM      30.12S
HOWELL         CLOUDY    63  63  99 NE5       30.10F

CITY           SKY/WX    TMP DP  RH WIND       PRES   REMARKS
JACKSON        CLOUDY    63  61  93 VRB3      30.12R
LAMBERTVILLE   CLOUDY    68  64  88 CALM      30.10S
LANSING        PTCLDY    60  58  92 CALM      30.12R
LAPEER         CLOUDY    61  58  91 CALM      30.13R
MASON          FOG       62  61  97 NE3       30.11F VSB 3/4
MONROE         CLOUDY    68  66  94 CALM      30.08S FOG
MT. CLEMENS    CLOUDY    64  58  79 NE7       30.10R
PONTIAC        MOCLDY    64  60  87 E5        30.11S
PORT HOPE        N/A     62  55  77 CALM      30.11R
PORT HURON     MOCLDY    61  57  88 CALM      30.11S
TRI CITIES     MOCLDY    63  56  78 NE6       30.13R
TROY           MOCLDY    66  59  78 NE8       30.13S
SAGINAW HB     PTCLDY    59  59 100 NE5       30.11S
$$
MIZ043>046-050>051-056>058-064>065-071>073-077>080-271200-
SOUTHWEST LOWER MICHIGAN

CITY           SKY/WX    TMP DP  RH WIND       PRES   REMARKS
BATTLE CREEK   MOCLDY    62  58  86 CALM      30.14R
BENTON HARBOR  PTCLDY    57  57 100 CALM      30.13R FOG
BIG RAPIDS     CLOUDY    57  57 100 CALM      30.15R
COLDWATER      PTCLDY    63  61  94 CALM      30.13R
FREMONT        FAIR      57  56  98 CALM      30.15R
HOLLAND        MOCLDY    61  59  93 CALM      30.14S
GRAND RAPIDS   MOCLDY    61  61 100 N3        30.14R
IONIA          FAIR      60  59  96 CALM      30.13R
KALAMAZOO      PTCLDY    61  58  90 N5        30.14R
LUDINGTON      CLOUDY    57  56  95 CALM      30.16R
MARSHALL       MOCLDY    59  58  97 CALM      30.12R
MOUNT PLEASANT PTCLDY    56  55  97 N3        30.14R
MUSKEGON       CLOUDY    62  59  90 CALM      30.14R
SOUTH HAVEN    PTCLDY    58  58  99 CALM      30.13R
$$
MIZ016>042-271200-
NORTHERN LOWER MICHIGAN

CITY           SKY/WX    TMP DP  RH WIND       PRES   REMARKS
ALPENA         MOCLDY    54  52  93 NW5       30.13S
BEAVER ISLAND  MOCLDY    59  53  81 NW3       30.16R
BELLAIRE       MOCLDY    55  53  95 CALM      30.15S
CADILLAC       CLOUDY    56  56 100 CALM      30.16S
CHARLEVOIX     PTCLDY    56  55  94 CALM      30.17S
FRANKFORT      MOCLDY    57  53  85 CALM      30.15S
GAYLORD        MOCLDY    54  50  86 CALM      30.15S
GRAYLING       CLOUDY    55  55 100 SW5       30.17R
HARBOR SPRINGS MOCLDY    55  52  90 CALM      30.15R
HOUGHTON LAKE  CLOUDY    55  53  93 CALM      30.17R
MANISTEE       MOCLDY    57  54  88 CALM      30.16F
OSCODA         PTCLDY    53  52  97 W3        30.13S
PELLSTON       MOCLDY    51  49  92 CALM      30.14S
ROGERS CITY    MOCLDY    54  54 100 SW5       30.14S
TRAVERSE CITY  MOCLDY    59  54  83 S3        30.15R
$$
MIZ007>008-015-271200-
EASTERN UPPER MICHIGAN

CITY           SKY/WX    TMP DP  RH WIND       PRES   REMARKS
KINROSS        CLOUDY    48  48 100 W3        30.13R
MACKINAC ISLAN CLOUDY    55  51  88 NW6       30.12S
NEWBERRY       MOCLDY    50  49  96 W7        30.14R
S. S. MARIE    CLOUDY    54  52  93 W3        30.12R
MUNISING         N/A     55  51  86 S6        30.14S
$$
MIZ004>006-011>014-085-271200-
CENTRAL UPPER MICHIGAN

CITY           SKY/WX    TMP DP  RH WIND       PRES   REMARKS
MANISTIQUE     LGT RAIN  53  51  94 NW3       30.15S
ESCANABA       CLOUDY    54  48  82 W3        30.16S
MENOMINEE      CLOUDY    55  52  88 CALM      30.14F
SAWYER-GWINN   MOCLDY    50  50 100 CALM      30.17R
$$
MIZ001>003-009>011-084-271200-
WESTERN UPPER MICHIGAN

CITY           SKY/WX    TMP DP  RH WIND       PRES   REMARKS
IRON MOUNTAIN  CLOUDY    53  52  96 CALM      30.15S
HOUGHTON       MOCLDY    53  50  89 NW3       30.16R
COPPER HARBOR    N/A     56  49  77 N5        30.15R
$$

ABBREVIATIONS USED IN REMARKS
   TC - TEMPERATURE IN CELSIUS
  WCI - WIND CHILL INDEX
   HX - HEAT INDEX
  VSB - VISIBILITY




USA.gov is the U.S. government's official web portal to all federal, state and local government web resources and services.